Regional Weather Roundup
Issued by NWS

Home | Current Version | Previous Version | Graphics & Text | Print | Product List | Glossary On
Versions: 1 2 3 4 5 6 7 8 9 10 11 12 13 14 15 16 17 18 19 20 21 22 23 24 25 26 27 28 29 30 31 32 33 34 35 36 37 38 39 40 41 42 43 44 45 46 47 48 49 50
000
ASUS43 KDTX 022210
RWRMI
MICHIGAN HOURLY REGIONAL WEATHER ROUNDUP
NATIONAL WEATHER SERVICE DETROIT/PONTIAC MI
ISSUED BY NATIONAL WEATHER SERVICE GRAND RAPIDS MI
500 PM EST FRI DEC 02 2016

NOTE: "FAIR" INDICATES FEW OR NO CLOUDS BELOW 12,000 FEET WITH NO
SIGNIFICANT WEATHER AND/OR OBSTRUCTION TO VISIBILITY.

MIZ047>049-052>055-059>063-066>070-074>076-081>083-022300-
SOUTHEAST LOWER MICHIGAN

CITY           SKY/WX    TMP DP  RH WIND       PRES   REMARKS
ADRIAN         CLOUDY    37  29  72 NW15G22   30.16R WCI  28
ALMA           CLOUDY    37  28  70 W10G17    30.15R WCI  30
ANN ARBOR      CLOUDY    37  27  67 W17G23    30.14R WCI  27
BAD AXE        CLOUDY    38  31  77 W15G21    30.06R WCI  29
DETROIT CITY   CLOUDY    37  26  64 W15       30.12R WCI  28
DETROIT        CLOUDY    38  27  64 NW10      30.14R WCI  31
FLINT          CLOUDY    37  28  70 W15       30.14R WCI  28
GROSSE ILE     CLOUDY    38  27  62 NW12G20   30.13R WCI  31
HILLSDALE      CLOUDY    36  28  75 NW12      30.14S WCI  27
HOWELL         CLOUDY    36  27  69 W9        30.14R WCI  29

CITY           SKY/WX    TMP DP  RH WIND       PRES   REMARKS
JACKSON        CLOUDY    36  27  69 NW12      30.15R WCI  28
LANSING        CLOUDY    36  25  64 W10       30.16R WCI  28
MASON          CLOUDY    35  28  75 W8        30.16R WCI  28
MONROE         CLOUDY    38  30  71 W13       30.14R WCI  30
MT. CLEMENS    MOCLDY    38  27  65 W15       30.08R WCI  29
PONTIAC        CLOUDY    36  26  67 W15       30.10R WCI  27
PORT HOPE        N/A     40  33  76 W13G21    30.02R WCI  32
PORT HURON     CLOUDY    37  28  70 W7        30.08R WCI  32
TRI CITIES     CLOUDY    38  31  76 W12       30.13R WCI  30
YPSILANTI      CLOUDY    38  27  64 NW14      30.14R WCI  30
$$
MIZ043>046-050>051-056>058-064>065-071>073-077>080-022300-
SOUTHWEST LOWER MICHIGAN

CITY           SKY/WX    TMP DP  RH WIND       PRES   REMARKS
BATTLE CREEK   CLOUDY    36  30  79 NW6       30.17R WCI  31
BENTON HARBOR  CLOUDY    38  25  59 W7        30.21R WCI  33
BIG RAPIDS     CLOUDY    37  30  77 W3        30.14R
COLDWATER      CLOUDY    37  28  69 W8        30.17R WCI  30
HOLLAND        CLOUDY    37  27  67 NW6       30.19R WCI  32
GRAND RAPIDS   CLOUDY    36  25  64 NW12      30.18R WCI  28
KALAMAZOO      CLOUDY    37  26  64 NW12      30.18R WCI  29
MARSHALL       CLOUDY    36  30  79 NW7       30.16R WCI  30
MOUNT PLEASANT CLOUDY    37  29  73 W9G16     30.13R WCI  30
MUSKEGON       CLOUDY    37  28  70 NW9       30.19R WCI  30
STURGIS        CLOUDY    37  28  71 NW9       30.18R WCI  30
$$
MIZ016>042-022300-
NORTHERN LOWER MICHIGAN

CITY           SKY/WX    TMP DP  RH WIND       PRES   REMARKS
ALPENA         CLOUDY    38  35  89 W6        30.04R WCI  33
BEAVER ISLAND  CLOUDY    39  33  79 NW10G18   30.11R WCI  32
BELLAIRE       MIX PCPN  38  36  92 W3        30.12R
CADILLAC       LGT SNOW  33  32  94 W8        30.11R WCI  26
CHARLEVOIX     CLOUDY    39  36  89 NW15G21   30.13R WCI  31
GAYLORD        LGT RAIN  36  32  85 W8        30.05R FOG     WCI  30
HOUGHTON LAKE  CLOUDY    36  30  79 W12       30.09R WCI  28
MANISTEE       LGT RAIN  37  31  78 W9        30.16R WCI  30
OSCODA         CLOUDY    42  32  69 NW12G24   30.03R
PELLSTON       CLOUDY    39  32  76 NW17      30.08R WCI  30
TRAVERSE CITY  CLOUDY    38  33  82 W14       30.12R WCI  30
LUDINGTON      CLOUDY    36  30  79 W5        30.17S WCI  32
$$
MIZ007>008-015-022300-
EASTERN UPPER MICHIGAN

CITY           SKY/WX    TMP DP  RH WIND       PRES   REMARKS
KINROSS        MIX PCPN  35  33  92 NW13      30.05R WCI  26
MACKINAC ISLAN CLOUDY    37  37 100 NW10G21   30.06R WCI  29
NEWBERRY       CLOUDY    35  34  96 NW9       30.07S WCI  28
S. S. MARIE    LGT RAIN  36  33  89 NW12      30.03R WCI  28
$$
MIZ004>006-011>014-085-022300-
CENTRAL UPPER MICHIGAN

CITY           SKY/WX    TMP DP  RH WIND       PRES   REMARKS
MANISTIQUE     CLOUDY    36  32  87 NW7       30.11R WCI  30
ESCANABA       CLOUDY    37  28  70 W6        30.16R WCI  32
MENOMINEE      CLOUDY    37  28  70 NW5       30.18R WCI  33
SAWYER-GWINN   CLOUDY    32  28  86 NW9       30.13R WCI  24
$$
MIZ001>003-009>011-084-022300-
WESTERN UPPER MICHIGAN

CITY           SKY/WX    TMP DP  RH WIND       PRES   REMARKS
IRON MOUNTAIN  CLOUDY    34  26  72 NW7       30.14R WCI  28
HOUGHTON       CLOUDY    32  28  85 NW8       30.15R WCI  25
COPPER HARBOR    N/A     36  30  79 N14       30.14R WCI  27
IRONWOOD       CLOUDY    29  27  92 W6        30.20R WCI  23
$$

ABBREVIATIONS USED IN REMARKS
   TC - TEMPERATURE IN CELSIUS
  WCI - WIND CHILL INDEX
   HX - HEAT INDEX
  VSB - VISIBILITY





USA.gov is the U.S. government's official web portal to all federal, state and local government web resources and services.